Location: Killam
(52.7910°N, 111.8608°W)
Time: 14:11:22
(UTC+00:00)

Oscar 11 - Pass Details

Date: 15 March 2026
Orbit: 590 x 602 km, 97.8° (Epoch: 18 April)

Event Time Altitude Azimuth Distance (km) Brightness Sun altitude
Rises 11:11:59 0° 14° (NNE) 2,843 11.1 -22.6°
Reaches altitude 10° 11:14:10 10° 15° (NNE) 1,935 10.2 -22.3°
Maximum altitude 11:18:22 85° 105° (ESE) 601 6.9 -21.7°
Enters shadow 11:19:17 54° 188° (S) 720 7.1 -21.6°
